Lubbock, TX

1:15 AM CST on November 15, 2019 (GMT -0600)
Lubbock International

Weather History for KLBB - August, 2019

Change the Weather History Date:

Wednesday, August 21, 2019

  Actual Average Record
Temperature  
Mean Temperature 85 °F 79 °F  
Max Temperature 97 °F 91 °F 103 °F (1930)
Min Temperature 73 °F 66 °F 52 °F (1956)
Degree Days  
Heating Degree Days 0 0  
Month to date heating degree days 0 0  
Since 1 June heating degree days 0 2  
Since 1 July heating degree days 0 0  
Cooling Degree Days 20 14  
Month to date cooling degree days 447 307  
Year to date cooling degree days 1554 1400  
Since 1 June cooling degree days 1344 1154  
Growing Degree Days 35 (Base 50)    
Moisture  
Dew Point 56 °F    
Average Humidity 38    
Maximum Humidity 55    
Minimum Humidity 22    
Precipitation  
Precipitation 0.00 in 0.07 in 0.95 in (1937)
Month to date precipitation 0.13 1.27  
Year to date precipitation 13.58 12.43  
Snow  
Snow 0.00 in 0.00 in - ()
Month to date snowfall 0.0 0.0  
Since 1 June snowfall 0.0 0.0  
Since 1 July snowfall 0.0 0.0  
Snow Depth 0.00 in    
Sea Level Pressure  
Sea Level Pressure 29.88 in    
Wind  
Wind Speed 8 mph ()    
Max Wind Speed 28 mph    
Max Gust Speed 38 mph    
Visibility 9.9 miles    
Events      
T = Trace of Precipitation, MM = Missing Value Source: Averaged Metar Reports

Daily Weather History Graph

Daily Weather History Graph

Search for Another Location

Airport or City:

Astronomy

Aug. 21, 2019 Rise Set
Actual Time 7:13 AM CDT 8:26 PM CDT
Civil Twilight 6:47 AM CDT 8:52 PM CDT
Nautical Twilight 6:16 AM CDT 9:23 PM CDT
Astronomical Twilight 5:44 AM CDT 9:55 PM CDT
Moon No Moon Rise 12:35 PM CDT (8/21)
Length of Visible Light 14h 05m
Length of Day
13h 13m
Waning Gibbous, 69% of the Moon is Illuminated
Aug 21
Waning Gibbous
Aug 23
Last Quarter
Aug 30
New
Sep 5
First Quarter
Sep 13
Full

Hourly Weather History & Observations

Time (CDT) Temp. Heat Index Dew Point Humidity Pressure Visibility Wind Dir Wind Speed Gust Speed Precip Events Conditions
12:53 AM 79.0 °F - 55.9 °F 45% 29.91 in 10.0 mi SSE 9.2 mph - N/A   Partly Cloudy
1:53 AM 78.1 °F - 55.9 °F 46% 29.91 in 10.0 mi SE 8.1 mph - N/A   Scattered Clouds
2:53 AM 75.9 °F - 55.9 °F 50% 29.90 in 10.0 mi SE 6.9 mph - N/A   Scattered Clouds
3:53 AM 75.0 °F - 55.9 °F 51% 29.90 in 10.0 mi SSE 8.1 mph - N/A   Partly Cloudy
4:53 AM 75.0 °F - 55.9 °F 51% 29.90 in 10.0 mi South 6.9 mph - N/A   Partly Cloudy
5:53 AM 73.0 °F - 55.9 °F 55% 29.91 in 10.0 mi South 8.1 mph - N/A   Partly Cloudy
6:53 AM 73.0 °F - 55.9 °F 55% 29.92 in 10.0 mi SSW 8.1 mph - N/A   Partly Cloudy
7:53 AM 75.0 °F - 57.0 °F 53% 29.94 in 10.0 mi SW 6.9 mph - N/A   Scattered Clouds
8:53 AM 80.1 °F 80.4 °F 57.0 °F 45% 29.95 in 10.0 mi SW 10.4 mph - N/A   Partly Cloudy
9:53 AM 84.0 °F 83.3 °F 57.0 °F 40% 29.94 in 10.0 mi SW 15.0 mph - N/A   Partly Cloudy
10:53 AM 88.0 °F 86.9 °F 57.9 °F 36% 29.94 in 10.0 mi SW 13.8 mph - N/A   Partly Cloudy
11:53 AM 90.0 °F 88.6 °F 57.0 °F 33% 29.94 in 10.0 mi SSW 9.2 mph - N/A   Partly Cloudy
12:53 PM 91.9 °F 90.3 °F 55.9 °F 30% 29.92 in 10.0 mi WSW 8.1 mph 17.3 mph N/A   Partly Cloudy
1:53 PM 93.0 °F 91.1 °F 55.0 °F 28% 29.90 in 10.0 mi West 8.1 mph - N/A   Partly Cloudy
2:53 PM 93.0 °F 91.1 °F 55.0 °F 28% 29.88 in 8.0 mi South 8.1 mph 19.6 mph N/A   Partly Cloudy
3:53 PM 95.0 °F 92.7 °F 54.0 °F 25% 29.85 in 10.0 mi South 11.5 mph 17.3 mph N/A   Partly Cloudy
4:53 PM 96.1 °F - 52.0 °F 22% 29.82 in 10.0 mi SE 12.7 mph 18.4 mph N/A   Partly Cloudy
5:53 PM 95.0 °F 92.7 °F 54.0 °F 25% 29.80 in 10.0 mi South 15.0 mph 21.9 mph N/A   Partly Cloudy
6:53 PM 93.0 °F 90.6 °F 53.1 °F 26% 29.78 in 10.0 mi South 12.7 mph - N/A   Scattered Clouds
7:53 PM 91.0 °F 88.7 °F 54.0 °F 28% 29.79 in 10.0 mi SSE 10.4 mph - N/A   Scattered Clouds
8:53 PM 87.1 °F 85.3 °F 55.0 °F 33% 29.81 in 10.0 mi SSE 8.1 mph - N/A   Scattered Clouds
9:53 PM 86.0 °F 84.5 °F 55.0 °F 35% 29.84 in 10.0 mi SE 6.9 mph - N/A   Mostly Cloudy
10:53 PM 84.0 °F 83.0 °F 55.9 °F 38% 29.84 in 10.0 mi SSE 9.2 mph - N/A   Scattered Clouds
11:53 PM 82.9 °F 82.4 °F 57.0 °F 41% 29.85 in 10.0 mi SSE 6.9 mph - N/A   Scattered Clouds